Starlink 35777

operational
NORAD ID: 66975 Int'l Des: 2025-288 Owner: SPXS Country: US Constellation: starlink
LEOCIRCULAR

About Starlink 35777

Description loading...

Live Position

Loading 3D Globe...

Upcoming Passes

Altitude History

Altitude vs Time

uPlot chart will show altitude changes over time

Two-Line Element Set

1 66975C 25288S 25346.10326389 -.01070400 00000+0 -18423-2 0 3469
2 66975 43.0041 171.8087 0001796 273.8531 151.6058 16.02451812 18
Epoch: Dec 12, 2025 • Age: 50 hours

Current Status

Altitude 287.2 km
Velocity 7.74 km/s
Sub-Earth Point -34.88°S, 79.86°W
Launch Date Dec 8, 2025
Age 5 days
Type internet

Technical Details

Classification Payload
Mass 575.00 kg
Dry Mass 530.00 kg
Total Mass 575.00 kg
Length 0.30 m
Diameter 4.10 m
Span 29.00 m
Shape Box + pan
Manufacturer SPXS
Bus Type Starlink V2MO
Phase Status In Orbit
Owner/State SPXS/US

Large Constellations

Loading constellations...